Regional Weather Roundup
Issued by NWS

Home | Current Version | Previous Version | Text Only | Print | Product List | Glossary On
Versions: 1 2 3 4 5 6 7 8 9 10 11 12 13 14 15 16 17 18 19 20 21 22 23 24 25 26 27 28 29 30 31 32 33 34 35 36 37 38 39 40 41 42 43 44 45 46 47 48 49 50
000
ASUS43 KLSX 021107
RWRMO

WEATHER SUMMARY FOR MISSOURI
NATIONAL WEATHER SERVICE SPRINGFIELD MO
600 AM CDT TUE JUN 02 2015

NOTE: "FAIR" INDICATES FEW OR NO CLOUDS BELOW 12,000 FEET WITH NO
       SIGNIFICANT WEATHER AND/OR OBSTRUCTIONS TO VISIBILITY.
       CURRENT SKY AND/OR WEATHER CONDITIONS ARE NOT AVAILABLE FOR
       CHILLICOTHE AND FARMINGTON.

MOZ001>031-035>038-043-044-053-054-021200-
...NORTHERN AND WESTERN MISSOURI...

CITY           SKY/WX    TMP DP  RH WIND       PRES   REMARKS
KANSAS CTY INT CLOUDY    58  53  84 SE6       30.10R
KANSAS C DTWN  CLOUDY    60  52  74 SE7       30.09S
LEE`S SUMMIT   CLOUDY    58  53  84 SE6       30.10F
ST JOSEPH      CLOUDY    59  53  80 SE7       30.09S
CHILLICOTHE      N/A     61  54  77 SE5       30.13S
KIRKSVILLE     CLOUDY    55  54  96 CALM      30.14S FOG

$$
MOZ066>068-077>081-088>096-101>105-021200-
...SOUTHWEST MISSOURI...

CITY           SKY/WX    TMP DP  RH WIND       PRES   REMARKS
SPRINGFIELD    CLOUDY    56  54  93 SE6       30.10R
JOPLIN         CLOUDY    57  55  93 E3        30.08R

$$
MOZ032>034-039>042-045>050-055>058-069>072-021200-
...CENTRAL MISSOURI...

CITY           SKY/WX    TMP DP  RH WIND       PRES   REMARKS
COLUMBIA       CLOUDY    57  56  96 CALM      30.13S
JEFFERSON CITY CLOUDY    59  55  87 CALM      30.13S
ROLLA          CLOUDY    57  56  96 CALM      30.11S
SEDALIA        CLOUDY    60  55  83 E3        30.13R
WHITEMAN AFB   CLOUDY    58  55  88 SE5       30.11S
WARRENSBURG    CLOUDY    57  54  88 CALM      30.11S
OSAGE BEACH    CLOUDY    57  55  94 E3        30.12S

$$
MOZ051-052-059>065-021200-
...EAST CENTRAL MISSOURI...

CITY           SKY/WX    TMP DP  RH WIND       PRES   REMARKS
ST LOUIS INTL  MOCLDY    59  55  88 E3        30.15R
SPIRIT OF STL  CLOUDY    59  59 100 CALM      30.13R
ST CHARLES     CLEAR     56  55  97 NE3       30.14R

$$
MOZ072>076-082>087-097>100-106>115-021200-
...SOUTH CENTRAL AND SOUTHEAST MISSOURI...

CITY           SKY/WX    TMP DP  RH WIND       PRES   REMARKS
CAPE GIRARDEAU CLOUDY    59  56  89 N5        30.10S
FARMINGTON     CLOUDY    57  55  94 CALM      30.16R
POPLAR BLUFF   CLOUDY    60  57  89 N3        30.10R
WEST PLAINS    CLOUDY    59  55  87 CALM      30.13S

$$


USA.gov is the U.S. government's official web portal to all federal, state and local government web resources and services.